STARLINK-11247 [DTC] (60720 NORAD) Tracking and Keplerian Element Data

This shows tracking and keplerian element data for the satellite.

Feedback or suggestion? Click here.




ElementValue
Catalog60720
NameSTARLINK-11247 [DTC]
Epoch Orbit827
Epoch Day286.78785148
Epoch Year2024
RAAN124.9958
Inclination53.1599
Eccentricity0.0001362
Argument of Perigee123.5561
Mean Anonmoly236.5587
Mean Motion15.69770578
Decay Rate8.338E-05
L11 60720U 24152A 24286.78785148 .00008338 00000+0 73428-4 0 9998
L22 60720 53.1599 124.9958 0001362 123.5561 236.5587 15.69770578 8270



Live tracking and technical data element details for STARLINK-11247 [DTC] (NORAD 60720). STARLINK-11247 [DTC] can be tracked NOW for your location showing map with azimuth and elevation plus other details from your city location.







IsCatalogInMostPopularTable: catalog: 60720, numindb: 9
Update: records affected: 1



GetName: 60720 STARLINK-11247 [DTC]

Hit Count: updated at: Tue, 03 Dec 2024 02:45:29 GMT